OBJECT E, 51828

Orbit data source: Space-Track

You're viewing an Uncataloged Satellite

Recently launched and/or uncataloged satellites may have evolving metadata. Metadata may include but not limited to: Owner, Maufacturer, Bus, Motor, and Mission.

OBJECT E, 51828 is a Chinese satellite in SSO that was launched on Sun, 27 Feb 2022 UTC via a CHANG ZHENG 8 launch vehicle from the Wenchang Satellite Launch Center (WSC). Unknown objects in Earth's orbit typically refer to objects detected orbiting the Earth but have not yet been identified or cataloged. These objects could be anything from previously untracked satellites, spent rocket stages, debris from satellite collisions, or even natural meteoroids temporarily captured by Earth's gravity.

Loading next visibility...
Identifier
51828, 2022-019E
Orbit
SSO
Country
Flag of CNCN / PRC
Related business
None
Manufacturer
Unknown
Mission
Non-operational Civil Imaging
Bus & Motor
Unknown
Mass
Unknown
Launch date (UTC)
2022-02-27 (4 years ago)
Launch vehicle
CHANG ZHENG 8
Launch site
Wenchang Satellite Launch Center (WSC)
Object type
Unknown
Shape & HBR
Box + 2 Pan, 1.0 m
Radar Cross Section
1.775 m², Large (>1 m²)

Expand to show TLE details & history
Last TLE update: 21 hours ago

TLE from 21 hours ago
0 OBJECT E
1 51828U 22019E   26172.56762483  .00022423  00000-0  28501-3 0  9999
2 51828  97.3783 269.9201 0006625  95.9264 264.2748 15.59377805240678
Epoch: 2026-06-21T13:37Z
TLE epoch observation values (Epoch: 2026-06-21T13:37:22.785Z)
Latitude
0.00001°
Longitude
155.80912°
Altitude
393.051 km
Speed
7.674 km/s
True Right ascension
17h 59m 40s
True Declination
0° 00' 00"
Sunlit
Object was in full shadow at epoch
Visualization orbit readout
Latitude
Unknown
Longitude
Unknown
Altitude
Unknown
Speed
Unknown
Apparent Right ascension
Unknown
Apparent Declination
Unknown
Sunlit
N/A
Visualization observer readout
Local Sidereal Time
21:55:07
Azimuth
Unknown
Elevation
Unknown
Doppler factor
Unknown
Orbital elements
Apogee altitude
390.85 km
Perigee altitude
381.888 km
Semi-major axis
6,764.506 km
Eccentricity
0.00066
Inclination
97.3783°
RAAN
269.9201°
Arg. of periapsis
95.9264°
True anomaly
264.19927°
Mean anomaly
264.2748°
Eccentric anomaly
264.23703°
Mean motion
3.90112 °/min
Orbital period
92.28 mins
BSTAR
0.00028501
Loading maneuver chart data...
Computing Atmospheric mass density...
Loading historical data...
Loading historical data...
Loading historical data...
Loading historical data...
Loading historical data...
Loading historical data...
Loading historical data...

Documentation

Showing up to 5 results
|